Location: Unspecified
(0.0000°N, 0.0000°E)
Time: 06:32:33
(UTC+00:00)

Vanguard 2 Rocket - Pass Details

Date: 04 October 2023
Orbit: 552 x 3312 km, 32.9° (Epoch: 06 December)

Event Time Altitude Azimuth Distance (km) Brightness Sun altitude
Rises 09:51:59 0° 297° (WNW) 5,424 10.6 60.5°
Reaches altitude 10° 09:57:06 10° 315° (NW) 4,921 10.5 61.8°
Maximum altitude 10:06:23 18° 353° (N) 4,944 10.8 64.1°
Drops below altitude 10° 10:17:51 10° 31° (NNE) 6,156 11.4 66.9°
Sets 10:25:50 0° 47° (NE) 7,290 11.7 68.8°
